AirNav   Pilot Hours Calculator
 
 1215 users online  

2E2 Sharpe's Strip Airport
Emmett, Michigan, USA

GOING TO EMMETT?


FAA INFORMATION EFFECTIVE 25 FEBRUARY 2021

Location

FAA Identifier: 2E2
Lat/Long: 42-57-05.7900N 082-46-33.1150W
42-57.096500N 082-46.551917W
42.9516083,-82.7758653
(estimated)
Elevation: 781 ft. / 238 m (estimated)
From city: 2 miles S of EMMETT, MI
Time zone: UTC -5 (UTC -4 during Daylight Saving Time)
Zip code: 48041

Airport Operations

Airport use: Open to the public
Activation date: 11/2003
Control tower: no
ARTCC: CLEVELAND CENTER
FSS: LANSING FLIGHT SERVICE STATION
NOTAMs facility: LAN (NOTAM-D service available)
Attendance: IREG
Wind indicator: yes
Segmented circle: no

Airport Communications

CTAF: 122.9
WX AWOS-3 at PHN (11 nm E): 118.375 (810-364-7787)

Nearby radio navigation aids

NDB name  Hdg/Dist  Freq  Var  ID
PHURN317/10.233207WPH .--. ....

Airport Services

Runway Information

Runway 18/36

Dimensions: 2700 x 90 ft. / 823 x 27 m
Surface: turf, in fair condition
Runway edge markings: RWY 36 & DSPLCD THLD MKD WITH 3 FT YELLOW CONES.
RUNWAY 18  RUNWAY 36
Latitude: 42-57.318500N42-56.874500N
Longitude: 082-46.564167W082-46.539667W
Elevation: 779.0 ft.780.0 ft.
Traffic pattern: leftleft
Runway heading: 178 true358 true
Displaced threshold: 700 ft.no
Obstructions: 27 ft. pline, marked, 100 ft. from runway, 23 ft. left of centerline, 3:1 slope to clear
APCH RATIO 0:1 TO DSPLCD THLD, +46 FT TREES 0 FT DSTC, 96 FT R.
28 ft. trees, 115 ft. right of centerline

Airport Ownership and Management from official FAA records

Ownership: Privately-owned
Owner: VERNON SHARPE
11371 HILL ROAD
RILEY, MI 48041
Phone 810-384-6668
Manager: VERNON SHARPE
11371 HILL ROAD
RILEY, MI 48041
Phone 810-384-6668

Airport Operational Statistics

Aircraft based on the field: 1
Single engine airplanes: 1
    
Aircraft operations: 100/year *
50% transient general aviation
50% local general aviation
* for 12-month period ending 31 December 2018

Additional Remarks

DEER & TURKEYS INVOF ARPT.
FOR IFR CLEARANCE CTC CLEVELAND ARTCC (ZOB) 126.52/285.52 OR CALL ZOB 440-774-0224.
CTC ARPT MGR FOR RWY CONDS WHEN SNOW COVERED 810-384-6668.

Instrument Procedures

There are no published instrument procedures at 2E2.

Some nearby airports with instrument procedures:

KPHN - St Clair County International Airport (11 nm E)
D98 - Romeo State Airport (13 nm SW)
57D - Ray Community Airport (14 nm S)
KMTC - Selfridge Air National Guard Base (20 nm S)
D95 - Dupont-Lapeer Airport (23 nm W)
 
Loc | Ops | Rwys | IFR | FBO | Links
Com | Nav | Svcs | Stats | Notes
Area around 2E2 (Sharpe's Strip Airport)
 
Road maps at: MapQuest Bing Google
 
Aerial photo
WARNING: Photo may not be current or correct
Aerial photo of 2E2 (Sharpe's Strip Airport)
Photo by Vic Adamko
Taken in the Summer of 2004

Do you have a better or more recent aerial photo of Sharpe's Strip Airport that you would like to share? If so, please send us your photo.

 
Sectional chart

 
Airport distance calculator
Flying to Sharpe's Strip Airport? Find the distance to fly.

From to 2E2

Sunrise and sunset
Times for 26-Feb-2021
 Local
(UTC-5)
 Zulu
(UTC)
Morning civil twilight06:4411:44
Sunrise07:1312:13
Sunset18:1523:15
Evening civil twilight18:4423:44

Current date and time
Zulu (UTC)  26-Feb-2021 21:56:47
Local (UTC-5)  26-Feb-2021 16:56:47
 
METAR
KPHN 
12nm E 
262118Z AUTO 14009KT 120V180 10SM CLR 03/M06 A3020 RMK AO2
KMTC 
20nm S 
262056Z 13008KT 10SM FEW250 03/M03 A3020 RMK AO2A SLP239 T00291028 57041 $
CYZR 
21nm E 
262100Z AUTO 16011KT 9SM CLR 03/M07 A3021 RMK SLP238
KD95 
23nm W 
262135Z AUTO 13011KT 10SM CLR 04/M07 A3016 RMK AO2 T00351075
TAF
KMTC 
20nm S 
261722Z 2617/2723 17009KT 9999 SKC QNH3010INS BECMG 2623/2624 13009KT 9999 SCT050 BKN100 QNH2997INS BECMG 2705/2706 14009KT 8000 -RA OVC018 620188 QNH2988INS BECMG 2711/2712 21009KT 9999 NSW OVC010 620109 QNH2991INS BECMG 2717/2718 28012G18KT 9999 OVC011 510053 QNH2997INS TX04/2716Z TNM01/2701Z
CYZR 
21nm E 
261938Z 2620/2703 17010KT P6SM SKC RMK FCST BASED ON AUTO OBS. NXT FCST WILL BE ISSUED AT 270845Z
NOTAMs
Click for the latest NOTAMs
NOTAMs are issued by the DoD/FAA and will open in a separate window not controlled by AirNav.

 

 
 

Would you like to see your business listed on this page?

 If your business provides an interesting product or service to pilots, flight crews, aircraft, or users of the Sharpe's Strip Airport, you should consider listing it here.  To start the listing process, click on the button below
 
Add a business
 

Other Pages about Sharpe's Strip Airport

Page from the Michigan Airport Directory (PDF)
 
Update a link
 
Copyright © AirNav, LLC. All rights reserved. Privacy Policy  Contact